Врубовка

Украина / Луганская область     48°44′41″N   38°22′43″E
темп.,
°C
ветер,
м/с
пор.,
м/с
влажн.,
%
обл.,
%
осадки,
мм/ч
давл.,
гПа
погр.,
м
8 марта, пн
пн823:00−1зюз8166850 0.0 1014870
02:00−1зюз8166927 0.0 1013681
05:00−2зюз8157935 0.0 1012594
08:000зюз9147667 0.0 1011816
11:00+3зюз10156295 0.0 10111643
14:00+5зюз9145698 0.1 10101861
17:00+2зюз41174100 0.1 1010734
20:000зюз4118699 0.1 1011508
9 марта, вт
вт923:00−1зсз3694100 0.1 1011386
02:00−2з3791100 0.2 1011317
05:00−3з388570 0.0 1011371
08:00−1зсз576735 0.0 1013834
11:000зсз576275 0.2 10141228
14:00+1зсз785987 0.4 10151431
17:00−2сз686399 0.2 10171092
20:00−4сз476690 0.2 1020924
10 марта, ср
ср1023:00−5ссз566842 0.0 1021993
02:00−6ссз566171 0.1 1023966
05:00−6ссз465510 0.0 1024980
08:00−6ссз455731 0.0 10261021
11:00−4ссз344361 0.0 10261189
14:00−2ссз343632 0.0 10261317
17:00−3ссз234199 0.0 1025803
20:00−4ссв354876 0.0 1026449
11 марта, чт
чт1123:00−5св35520 0.0 1027499
02:00−6св46520 0.0 1028626
05:00−8св45550 0.0 1028605
08:00−9всв56558 0.0 1030626
11:00−7всв55260 0.0 1030979
14:00−6всв45230 0.0 10301191
17:00−6всв44270 0.0 10301149
20:00−7в34300 0.0 1032959
12 марта, пт
пт1223:00−8в34350 0.0 1032742
02:00−8вюв34410 0.0 1032550
05:00−9юв34460 0.0 1033408
08:00−8юв46400 0.0 1034625
11:00−5ююв452828 0.0 1033879
14:00−2ю462659 0.0 10311010
17:00−3ююв473168 0.0 1030852
20:00−4ю5103283 0.0 1030802